SCP
0 0 0 0 0 0 0 0 0 0 0 0 0 0 0 0 0 0 0 0 0 0 0 0 0 0 0
0 0 0 0 0 0 0 0 0 0 0 0 0 0 0 0 0 0 0 0 0 0 0 0 0 0 0
0 0 0 0 0 0 0 0 0 0 0 0 0 0 0 0 0 0 0 0 0 0 0 0 0 0 0
0 0 0 0 0 0 0 0 0 0 0 0 0 0 0 0 0 0 0 0 0 0 0 0 0 0 0
0 0 0 0 0 0 0 0 0 0 0 0 0 0 0 0 0 0 0 0 0 0 0 0 0 0 0
0 0 0 0 0 0 0 0 0 0 0 0 0 0 0 0 0 0 0 0 0 0 0 0 0 0 0
0 0 0 0 0 0 0 0 0 0 0 0 0 0 0 0 0 0 0 0 0 0 0 0 0 0 0
0 0 0 0 0 0 0 0 0 0 0 0 0 0 0 0 0 0 0 0 0 0 0 0 0 0 0
0 0 0 0 0 0 0 0 0 0 0 0 0 0 0 0 0 0 0 0 0 0 0 0 0 0 0
0 0 0 0 0 0 0 0 0 0 0 0 0 0 0 0 0 0 0 0 0 0 0 0 0 0 0
0 0 0 0 0 0 0 0 0 0 0 0 0 0 0 0 0 0 0 0 0 0 0 0 0 0 0
0 0 0 0 0 0 0 0 0 0 0 0 0 0 0 0 0 0 0 0 0 0 0 0 0 0 0
0 0 0 0 0 0 0 0 0 0 0 0 0 0 0 0 0 0 0 0 -0 -0 0 0 0 0 0
0 0 0 0 0 0 0 0 0 0 0 0 0 0 0 0 0 0 0 0 -0 0 0 0 0 0 0
0 0 0 0 0 0 0 0 0 0 0 0 0 0 0 0 0 0 0 0 -0 0 0 0 0 0 0
0 0 0 0 0 0 0 0 0 0 0 0 0 0 0 0 0 0 0 0 -0 0 0 0 0 0 0
Wind_Speed_500mb
8 8 8 9 8 10 12 15 17 20 22 24 26 29 30 31 29 30 30 32 34 36 37 40 41 44 40
7 7 8 8 9 10 12 15 18 22 27 28 29 31 32 32 32 33 33 34 34 35 35 37 39 45 44
7 6 6 8 10 13 14 18 23 28 31 33 35 36 34 31 28 28 28 28 29 34 34 32 40 48 47
8 5 6 9 12 16 21 24 29 31 33 34 32 33 33 31 25 19 21 24 24 24 28 32 36 43 51
9 7 8 11 15 20 26 29 30 33 32 30 28 26 23 22 20 18 16 18 22 23 22 26 32 38 49
11 11 12 14 17 22 28 32 35 32 29 27 25 23 19 19 21 21 18 18 20 19 21 25 27 27 37
14 15 13 15 19 23 27 32 30 28 27 24 22 20 19 21 20 17 14 15 19 16 19 25 24 20 17
17 16 14 16 19 24 28 26 24 23 23 20 19 19 19 21 19 22 20 15 10 14 12 18 24 22 22
19 15 13 15 20 25 26 20 20 21 19 17 19 20 22 25 23 21 16 14 5 11 6 21 22 27 28
20 13 12 17 20 23 18 17 17 18 13 18 19 23 27 31 16 11 16 10 5 9 4 10 16 19 31
17 12 14 16 18 14 13 14 14 11 14 16 22 27 25 20 24 21 19 10 5 8 4 4 5 14 24
16 13 13 16 14 10 12 11 11 8 13 17 22 22 20 19 21 20 16 18 12 10 9 10 9 15 20
15 11 12 13 8 6 7 10 8 7 11 13 18 18 16 18 18 17 9 15 14 16 14 18 17 17 25
13 10 13 11 5 6 4 5 8 8 8 12 15 17 19 19 17 14 11 6 13 13 22 26 17 36 32
11 10 11 9 4 1 3 3 4 6 6 11 13 16 18 21 16 12 10 9 7 11 19 10 13 10 46
10 9 8 7 5 2 1 1 1 2 3 8 11 14 18 17 13 13 10 6 12 17 6 15 8 46 31
Wind_Direction_500mb
255 273 286 287 302 320 327 333 327 320 316 311 309 309 305 297 287 277 266 259 257 253 247 244 236 227 225
256 272 279 300 312 320 324 322 322 327 324 320 315 309 304 300 296 288 281 272 259 252 244 237 231 223 223
239 266 304 308 307 313 330 331 334 330 329 326 321 322 322 317 310 298 287 277 265 256 250 238 228 221 221
249 282 310 302 313 328 334 337 335 332 327 324 326 324 321 318 316 309 292 278 263 257 252 239 228 223 217
259 282 301 308 325 334 332 331 329 328 332 331 326 323 322 318 314 309 297 277 268 253 246 236 228 222 216
263 272 295 316 326 329 327 325 331 337 336 335 334 330 325 325 321 311 294 271 262 259 255 232 213 219 214
247 266 292 314 320 321 321 329 334 340 342 336 338 344 345 338 329 335 321 299 261 259 256 216 210 199 215
244 267 296 310 315 316 323 333 339 345 331 338 350 359 353 350 347 339 331 318 289 259 228 211 209 201 212
246 269 297 306 314 320 329 339 349 335 342 360 5 8 359 353 334 334 332 319 325 313 245 222 213 206 211
249 274 292 301 316 324 334 340 352 335 360 15 24 4 357 349 360 13 349 340 311 319 244 227 218 204 209
248 263 281 302 316 329 333 346 347 348 24 35 17 4 358 17 36 18 3 22 352 341 207 158 200 189 183
238 255 285 304 319 334 339 0 347 20 50 30 12 13 21 35 32 23 20 38 60 56 91 137 142 157 151
228 254 282 296 308 322 353 6 352 20 49 29 8 21 32 21 26 20 4 50 97 89 106 118 129 151 153
215 248 276 281 270 304 23 5 339 27 45 24 9 16 10 16 17 35 28 71 109 95 97 116 116 119 143
217 253 277 272 258 280 51 357 339 33 54 28 17 13 19 12 22 46 40 60 148 156 144 122 119 121 122
224 256 271 243 249 254 145 6 23 24 82 26 15 24 13 4 26 61 53 85 136 161 173 159 169 148 125
Wind_Speed_850mb
8 8 8 9 8 10 12 15 17 20 22 24 26 29 30 31 29 30 30 32 34 36 37 40 41 44 40
7 7 8 8 9 10 12 15 18 22 27 28 29 31 32 32 32 33 33 34 34 35 35 37 39 45 44
7 6 6 8 10 13 14 18 23 28 31 33 35 36 34 31 28 28 28 28 29 34 34 32 40 48 47
8 5 6 9 12 16 21 24 29 31 33 34 32 33 33 31 25 19 21 24 24 24 28 32 36 43 51
9 7 8 11 15 20 26 29 30 33 32 30 28 26 23 22 20 18 16 18 22 23 22 26 32 38 49
11 11 12 14 17 22 28 32 35 32 29 27 25 23 19 19 21 21 18 18 20 19 21 25 27 27 37
14 15 13 15 19 23 27 32 30 28 27 24 22 20 19 21 20 17 14 15 19 16 19 25 24 20 17
17 16 14 16 19 24 28 26 24 23 23 20 19 19 19 21 19 22 20 15 10 14 12 18 24 22 22
19 15 13 15 20 25 26 20 20 21 19 17 19 20 22 25 23 21 16 14 5 11 6 21 22 27 28
20 13 12 17 20 23 18 17 17 18 13 18 19 23 27 31 16 11 16 10 5 9 4 10 16 19 31
17 12 14 16 18 14 13 14 14 11 14 16 22 27 25 20 24 21 19 10 5 8 4 4 5 14 24
16 13 13 16 14 10 12 11 11 8 13 17 22 22 20 19 21 20 16 18 12 10 9 10 9 15 20
15 11 12 13 8 6 7 10 8 7 11 13 18 18 16 18 18 17 9 15 14 16 14 18 17 17 25
13 10 13 11 5 6 4 5 8 8 8 12 15 17 19 19 17 14 11 6 13 13 22 26 17 36 32
11 10 11 9 4 1 3 3 4 6 6 11 13 16 18 21 16 12 10 9 7 11 19 10 13 10 46
10 9 8 7 5 2 1 1 1 2 3 8 11 14 18 17 13 13 10 6 12 17 6 15 8 46 31
Wind_Direction_850mb
255 273 286 287 302 320 327 333 327 320 316 311 309 309 305 297 287 277 266 259 257 253 247 244 236 227 225
256 272 279 300 312 320 324 322 322 327 324 320 315 309 304 300 296 288 281 272 259 252 244 237 231 223 223
239 266 304 308 307 313 330 331 334 330 329 326 321 322 322 317 310 298 287 277 265 256 250 238 228 221 221
249 282 310 302 313 328 334 337 335 332 327 324 326 324 321 318 316 309 292 278 263 257 252 239 228 223 217
259 282 301 308 325 334 332 331 329 328 332 331 326 323 322 318 314 309 297 277 268 253 246 236 228 222 216
263 272 295 316 326 329 327 325 331 337 336 335 334 330 325 325 321 311 294 271 262 259 255 232 213 219 214
247 266 292 314 320 321 321 329 334 340 342 336 338 344 345 338 329 335 321 299 261 259 256 216 210 199 215
244 267 296 310 315 316 323 333 339 345 331 338 350 359 353 350 347 339 331 318 289 259 228 211 209 201 212
246 269 297 306 314 320 329 339 349 335 342 360 5 8 359 353 334 334 332 319 325 313 245 222 213 206 211
249 274 292 301 316 324 334 340 352 335 360 15 24 4 357 349 360 13 349 340 311 319 244 227 218 204 209
248 263 281 302 316 329 333 346 347 348 24 35 17 4 358 17 36 18 3 22 352 341 207 158 200 189 183
238 255 285 304 319 334 339 0 347 20 50 30 12 13 21 35 32 23 20 38 60 56 91 137 142 157 151
228 254 282 296 308 322 353 6 352 20 49 29 8 21 32 21 26 20 4 50 97 89 106 118 129 151 153
215 248 276 281 270 304 23 5 339 27 45 24 9 16 10 16 17 35 28 71 109 95 97 116 116 119 143
217 253 277 272 258 280 51 357 339 33 54 28 17 13 19 12 22 46 40 60 148 156 144 122 119 121 122
224 256 271 243 249 254 145 6 23 24 82 26 15 24 13 4 26 61 53 85 136 161 173 159 169 148 125